| time (UTC) | temp F | wind direction | speed MPH | gust MPH | rain 1hr in | rain 24hr in | rain mn in | humidity % | barometer mb |
| 20260905010047 | 71 | 188 | 0.0 | 0.0 | 0.00 | 0.11 | 0.09 | 95 | 1011.9 |
| 20260905004549 | 71 | 188 | 0.0 | 0.0 | 0.00 | 0.11 | 0.09 | 94 | 1011.8 |
| 20260905003046 | 72 | 188 | 0.0 | 0.0 | 0.00 | 0.11 | 0.09 | 94 | 1011.9 |
| 20260905001546 | 73 | 188 | 0.0 | 0.0 | 0.00 | 0.11 | 0.09 | 93 | 1011.9 |
| 20260905000059 | 73 | 188 | 0.0 | 0.0 | 0.00 | 0.11 | 0.09 | 93 | 1011.8 |
| 20260904234545 | 74 | 188 | 0.0 | 0.0 | 0.00 | 0.23 | 0.09 | 92 | 1011.8 |
| 20260904233048 | 74 | 188 | 0.0 | 1.0 | 0.00 | 0.23 | 0.09 | 92 | 1012.0 |
| 20260904231544 | 74 | 189 | 0.0 | 2.0 | 0.00 | 0.23 | 0.09 | 92 | 1012.0 |
| 20260904230044 | 74 | 221 | 0.0 | 0.0 | 0.00 | 0.23 | 0.09 | 91 | 1012.1 |
| 20260904224543 | 74 | 221 | 0.0 | 0.0 | 0.00 | 0.77 | 0.09 | 91 | 1012.0 |
| 20260904223043 | 75 | 229 | 0.0 | 0.0 | 0.00 | 0.77 | 0.09 | 90 | 1011.8 |
| 20260904221544 | 76 | 221 | 0.0 | 0.0 | 0.00 | 0.77 | 0.09 | 90 | 1011.5 |
| 20260904220106 | 76 | 223 | 0.0 | 0.0 | 0.00 | 0.77 | 0.09 | 89 | 1011.4 |
| 20260904214540 | 76 | 223 | 0.0 | 0.0 | 0.00 | 0.77 | 0.09 | 89 | 1010.9 |
| 20260904213040 | 76 | 231 | 0.0 | 0.0 | 0.00 | 0.77 | 0.09 | 89 | 1010.8 |
| 20260904211549 | 76 | 234 | 0.0 | 0.0 | 0.00 | 0.77 | 0.09 | 89 | 1010.8 |
| 20260904210040 | 76 | 221 | 0.0 | 0.0 | 0.00 | 0.77 | 0.09 | 88 | 1010.5 |
| 20260904204546 | 76 | 219 | 0.0 | 0.0 | 0.00 | 0.77 | 0.09 | 86 | 1010.0 |
| 20260904203043 | 76 | 223 | 0.0 | 0.0 | 0.00 | 0.77 | 0.09 | 88 | 1010.1 |
| 20260904201533 | 76 | 261 | 0.0 | 0.0 | 0.00 | 0.77 | 0.09 | 86 | 1010.7 |
| 20260904200035 | 76 | 267 | 1.0 | 5.0 | 0.00 | 0.77 | 0.09 | 85 | 1011.0 |
| 20260904194544 | 75 | 268 | 1.0 | 6.0 | 0.00 | 0.77 | 0.09 | 89 | 1011.6 |
| 20260904193022 | 74 | 284 | 1.0 | 4.0 | 0.00 | 0.77 | 0.09 | 91 | 1011.9 |
| 20260904191526 | 73 | 302 | 2.0 | 7.0 | 0.00 | 0.77 | 0.09 | 92 | 1011.8 |
| 20260904190017 | 72 | 299 | 1.0 | 4.0 | 0.00 | 0.77 | 0.09 | 94 | 1012.1 |
| 20260904184518 | 72 | 263 | 1.0 | 6.0 | 0.01 | 0.77 | 0.09 | 95 | 1011.7 |
| 20260904183015 | 72 | 276 | 1.0 | 4.0 | 0.01 | 0.77 | 0.09 | 95 | 1012.4 |
| 20260904181514 | 72 | 257 | 0.0 | 5.0 | 0.01 | 0.77 | 0.09 | 94 | 1012.3 |
| 20260904180014 | 73 | 271 | 1.0 | 8.0 | 0.01 | 0.77 | 0.09 | 94 | 1013.6 |
| 20260904174522 | 73 | 275 | 4.0 | 8.0 | 0.00 | 0.76 | 0.08 | 94 | 1014.1 |
| 20260904173011 | 72 | 315 | 3.0 | 8.0 | 0.00 | 0.76 | 0.08 | 95 | 1014.0 |
| 20260904171510 | 72 | 304 | 1.0 | 9.0 | 0.00 | 0.76 | 0.08 | 97 | 1014.2 |
| 20260904170009 | 72 | 19 | 1.0 | 9.0 | 0.00 | 0.76 | 0.08 | 97 | 1013.8 |
| 20260904164510 | 71 | 287 | 5.0 | 13.0 | 0.00 | 0.76 | 0.08 | 96 | 1014.1 |
| 20260904163009 | 71 | 272 | 3.0 | 9.0 | 0.00 | 0.76 | 0.08 | 96 | 1014.2 |
| 20260904161507 | 71 | 348 | 3.0 | 9.0 | 0.00 | 0.76 | 0.08 | 96 | 1014.1 |
| 20260904160007 | 72 | 295 | 2.0 | 10.0 | 0.00 | 0.76 | 0.08 | 97 | 1014.1 |
| 20260904154506 | 72 | 277 | 1.0 | 4.0 | 0.00 | 0.76 | 0.08 | 99 | 1014.3 |
| 20260904153003 | 71 | 101 | 0.0 | 4.0 | 0.01 | 0.76 | 0.08 | 98 | 1013.4 |
| 20260904151501 | 71 | 102 | 2.0 | 6.0 | 0.02 | 0.76 | 0.08 | 99 | 1012.8 |
| 20260904150058 | 70 | 207 | 2.0 | 3.0 | 0.04 | 0.76 | 0.08 | 99 | 1013.1 |
| 20260904144557 | 69 | 290 | 0.0 | 0.0 | 0.06 | 0.76 | 0.08 | 98 | 1013.5 |
| 20260904143056 | 69 | 289 | 0.0 | 0.0 | 0.06 | 0.75 | 0.07 | 98 | 1013.4 |
| 20260904141557 | 69 | 290 | 0.0 | 0.0 | 0.05 | 0.74 | 0.06 | 98 | 1013.5 |
| 20260904140054 | 69 | 290 | 0.0 | 0.0 | 0.03 | 0.72 | 0.04 | 98 | 1013.6 |
| 20260904134554 | 69 | 290 | 0.0 | 5.0 | 0.01 | 0.70 | 0.02 | 98 | 1013.9 |
| 20260904133105 | 69 | 285 | 2.0 | 3.0 | 0.00 | 0.69 | 0.01 | 98 | 1014.0 |
| 20260904131549 | 69 | 281 | 1.0 | 7.0 | 0.00 | 0.69 | 0.01 | 98 | 1013.4 |
| 20260904130049 | 69 | 192 | 0.0 | 0.0 | 0.00 | 0.69 | 0.01 | 99 | 1013.3 |
| 20260904124557 | 69 | 230 | 0.0 | 4.0 | 0.00 | 0.69 | 0.01 | 98 | 1013.2 |
| 20260904123107 | 69 | 232 | 0.0 | 0.0 | 0.00 | 0.69 | 0.01 | 98 | 1013.4 |
| 20260904121545 | 68 | 232 | 0.0 | 0.0 | 0.00 | 0.69 | 0.01 | 98 | 1012.9 |
| 20260904120044 | 68 | 232 | 0.0 | 0.0 | 0.00 | 0.69 | 0.01 | 98 | 1012.8 |
| 20260904114543 | 68 | 232 | 0.0 | 0.0 | 0.00 | 0.70 | 0.01 | 99 | 1013.0 |
| 20260904113052 | 67 | 232 | 0.0 | 0.0 | 0.00 | 0.70 | 0.01 | 98 | 1012.8 |
| 20260904111541 | 67 | 232 | 0.0 | 0.0 | 0.00 | 0.70 | 0.01 | 98 | 1012.7 |
| 20260904110051 | 67 | 232 | 0.0 | 0.0 | 0.00 | 0.70 | 0.01 | 98 | 1012.5 |
| 20260904104540 | 67 | 232 | 0.0 | 0.0 | 0.00 | 0.71 | 0.01 | 98 | 1012.4 |
| 20260904103040 | 67 | 232 | 0.0 | 0.0 | 0.00 | 0.71 | 0.01 | 98 | 1012.3 |
| 20260904101540 | 67 | 232 | 0.0 | 0.0 | 0.00 | 0.71 | 0.01 | 98 | 1012.1 |
| 20260904100043 | 67 | 239 | 0.0 | 0.0 | 0.00 | 0.71 | 0.01 | 98 | 1012.1 |
| 20260904094539 | 67 | 254 | 0.0 | 0.0 | 0.00 | 0.71 | 0.01 | 98 | 1012.6 |
| 20260904093051 | 67 | 254 | 0.0 | 0.0 | 0.00 | 0.71 | 0.01 | 98 | 1012.5 |
| 20260904091536 | 67 | 254 | 0.0 | 0.0 | 0.00 | 0.71 | 0.01 | 98 | 1012.3 |
| 20260904090037 | 67 | 254 | 0.0 | 0.0 | 0.00 | 0.71 | 0.01 | 98 | 1012.3 |
| 20260904084535 | 67 | 254 | 0.0 | 0.0 | 0.00 | 0.71 | 0.01 | 98 | 1012.3 |
| 20260904083034 | 67 | 254 | 0.0 | 0.0 | 0.00 | 0.71 | 0.01 | 98 | 1012.0 |
| 20260904081531 | 67 | 254 | 0.0 | 0.0 | 0.00 | 0.71 | 0.01 | 97 | 1011.9 |
| 20260904080032 | 68 | 254 | 0.0 | 0.0 | 0.01 | 0.71 | 0.01 | 98 | 1012.2 |
| 20260904074535 | 68 | 254 | 0.0 | 0.0 | 0.01 | 0.71 | 0.01 | 97 | 1012.3 |
| 20260904073031 | 68 | 254 | 0.0 | 0.0 | 0.01 | 0.71 | 0.01 | 98 | 1012.3 |
| 20260904071529 | 68 | 254 | 0.0 | 0.0 | 0.01 | 0.71 | 0.01 | 98 | 1012.4 |
| 20260904070042 | 68 | 254 | 0.0 | 0.0 | 0.00 | 0.70 | 0.00 | 98 | 1012.4 |
| 20260904064536 | 68 | 261 | 0.0 | 0.0 | 0.00 | 0.70 | 0.00 | 98 | 1012.4 |
| 20260904063028 | 68 | 261 | 0.0 | 0.0 | 0.00 | 0.70 | 0.00 | 98 | 1012.5 |
| 20260904061529 | 68 | 261 | 0.0 | 2.0 | 0.00 | 0.70 | 0.00 | 98 | 1012.5 |
| 20260904060026 | 68 | 262 | 0.0 | 0.0 | 0.00 | 0.70 | 0.00 | 98 | 1012.4 |
| 20260904054531 | 68 | 262 | 0.0 | 0.0 | 0.00 | 0.70 | 0.00 | 98 | 1012.4 |
| 20260904053023 | 68 | 262 | 0.0 | 0.0 | 0.00 | 0.70 | 0.00 | 97 | 1012.5 |
| 20260904051524 | 68 | 262 | 0.0 | 0.0 | 0.00 | 0.70 | 0.00 | 97 | 1012.4 |
| 20260904050022 | 68 | 262 | 1.0 | 4.0 | 0.00 | 0.70 | 0.00 | 97 | 1012.0 |
| 20260904044529 | 68 | 218 | 2.0 | 5.0 | 0.00 | 0.70 | 0.00 | 97 | 1012.1 |
| 20260904043019 | 68 | 203 | 1.0 | 4.0 | 0.01 | 0.70 | 0.00 | 97 | 1012.1 |
| 20260904041516 | 68 | 287 | 1.0 | 6.0 | 0.02 | 0.70 | 0.00 | 97 | 1011.9 |
| 20260904040014 | 68 | 276 | 2.0 | 9.0 | 0.02 | 0.70 | 0.70 | 97 | 1012.0 |
| 20260904034530 | 68 | 302 | 2.0 | 6.0 | 0.02 | 0.70 | 0.70 | 98 | 1012.2 |
| 20260904033013 | 68 | 144 | 3.0 | 7.0 | 0.01 | 0.69 | 0.69 | 97 | 1012.3 |
| 20260904031514 | 68 | 240 | 0.0 | 3.0 | 0.00 | 0.68 | 0.68 | 97 | 1012.0 |
| 20260904030011 | 68 | 249 | 1.0 | 5.0 | 0.00 | 0.68 | 0.68 | 97 | 1011.7 |
| 20260904024511 | 68 | 259 | 0.0 | 4.0 | 0.00 | 0.68 | 0.68 | 97 | 1011.9 |
| 20260904023010 | 68 | 317 | 1.0 | 5.0 | 0.00 | 0.68 | 0.68 | 97 | 1012.0 |
| 20260904021509 | 68 | 254 | 2.0 | 7.0 | 0.00 | 0.68 | 0.68 | 97 | 1011.7 |
| 20260904020008 | 68 | 143 | 1.0 | 7.0 | 0.00 | 0.68 | 0.68 | 97 | 1011.6 |
| 20260904014508 | 68 | 195 | 2.0 | 6.0 | 0.00 | 0.68 | 0.68 | 97 | 1011.3 |
| 20260904013008 | 68 | 87 | 1.0 | 9.0 | 0.00 | 0.68 | 0.68 | 97 | 1011.5 |